This is the latest recevied weather packets stored in our database for station/object KE5OYL. If no packets are shown the sender has not sent any weather packets the latest 10 day(s).
| Time | Temp. | Humidity | Pressure | Rain* | Wind** | Luminosity | Snow |
|---|---|---|---|---|---|---|---|
| 1777753307 | 25° C | 31% | 1020.7 hPa | 0 mm | - | 711 W/m² | - |
| 1777753004 | 25.56° C | 30% | 1021 hPa | 0 mm | - | 721 W/m² | - |
| 1777752700 | 25° C | 32% | 1020.8 hPa | 0 mm | - | 729 W/m² | - |
| 1777752396 | 23.89° C | 32% | 1020.9 hPa | 0 mm | - | 737 W/m² | - |
| 1777752093 | 23.89° C | 31% | 1021 hPa | 0 mm | - | 744 W/m² | - |
| 1777751792 | 24.44° C | 30% | 1020.9 hPa | 0 mm | - | 752 W/m² | - |
| 1777751487 | 23.33° C | 33% | 1021.1 hPa | 0 mm | - | 759 W/m² | - |
| 1777751184 | 23.33° C | 32% | 1021 hPa | 0 mm | - | 767 W/m² | - |
| 1777750881 | 23.33° C | 31% | 1021 hPa | 0 mm | - | 773 W/m² | - |
| 1777750577 | 23.89° C | 31% | 1021.3 hPa | 0 mm | - | 781 W/m² | - |
| 1777750274 | 24.44° C | 30% | 1021.2 hPa | 0 mm | - | 788 W/m² | - |
| 1777749969 | 23.89° C | 32% | 1021.1 hPa | 0 mm | - | 788 W/m² | - |
| 1777749668 | 23.89° C | 30% | 1021.4 hPa | 0 mm | - | 788 W/m² | - |
| 1777749364 | 23.33° C | 31% | 1021.6 hPa | 0 mm | - | 794 W/m² | - |
| 1777749061 | 23.89° C | 31% | 1021.5 hPa | 0 mm | - | 805 W/m² | - |
| 1777748759 | 23.89° C | 31% | 1021.3 hPa | 0 mm | - | 805 W/m² | - |
| 1777748450 | 22.78° C | 32% | 1021.5 hPa | 0 mm | - | 807 W/m² | - |
| 1777748145 | 23.33° C | 32% | 1021.6 hPa | 0 mm | - | 813 W/m² | - |
| 1777747842 | 22.78° C | 32% | 1021.7 hPa | 0 mm | - | 818 W/m² | - |
| 1777747538 | 22.78° C | 34% | 1021.8 hPa | 0 mm | - | 822 W/m² | - |
| 1777747234 | 23.89° C | 31% | 1021.7 hPa | 0 mm | - | 823 W/m² | - |
| 1777746931 | 22.78° C | 32% | 1021.9 hPa | 0 mm | - | 826 W/m² | - |
| 1777746627 | 23.89° C | 33% | 1021.8 hPa | 0 mm | - | 826 W/m² | - |
| 1777746322 | 22.78° C | 32% | 1021.9 hPa | 0 mm | - | 825 W/m² | - |
| 1777746018 | 23.33° C | 33% | 1022 hPa | 0 mm | - | 824 W/m² | - |
* Rain latest hour (hover to see other rain measurements)
** Current wind speed in m/s (hover to see current wind gust speed)